CTV697 WADD-WARR

Flight info

Callsign CTV697
Flight time 0h 45m
Altitude 26000
Route OKANG
Aircraft A320/M-SDE3FGHIRWY/LB1

Departure

Time 2026-05-05 12:38
Airport Denpasar I Gusti Ngurah Rai International Airport (WADD)

Arrival

Time 2026-05-05 13:23
Airport Juanda International Airport (WARR)
Time Latitude Longitude Altitude Speed Heading
2026-05-05 12:10 -8.74478 115.16134 34 ft 0 kts 88°
2026-05-05 12:25 -8.74479 115.16117 32 ft 2 kts 88°
2026-05-05 12:25 -8.74479 115.16100 33 ft 2 kts 88°
2026-05-05 12:25 -8.74480 115.16083 33 ft 2 kts 124°
2026-05-05 12:25 -8.74471 115.16074 33 ft 0 kts 173°
2026-05-05 12:34 -8.74497 115.16074 31 ft 7 kts 185°
2026-05-05 12:34 -8.74568 115.16066 33 ft 13 kts 178°
2026-05-05 12:35 -8.74678 115.16067 33 ft 17 kts 198°
2026-05-05 12:35 -8.74713 115.15956 33 ft 20 kts 268°
2026-05-05 12:35 -8.74719 115.15793 33 ft 26 kts 268°
2026-05-05 12:35 -8.74726 115.15591 32 ft 30 kts 269°
2026-05-05 12:36 -8.74746 115.15412 31 ft 17 kts 226°
2026-05-05 12:36 -8.74881 115.15401 28 ft 23 kts 158°
2026-05-05 12:36 -8.74894 115.15418 29 ft 0 kts 81°
2026-05-05 12:37 -8.74894 115.15424 29 ft 4 kts 83°
2026-05-05 12:37 -8.74885 115.15681 28 ft 75 kts 88°
2026-05-05 12:37 -8.74855 115.16439 29 ft 138 kts 88°
2026-05-05 12:38 -8.74817 115.17512 420 ft 153 kts 88°
2026-05-05 12:38 -8.74768 115.18579 1145 ft 153 kts 91°
2026-05-05 12:38 -8.74724 115.19704 1667 ft 170 kts 90°
2026-05-05 12:38 -8.74674 115.20973 2023 ft 192 kts 88°
2026-05-05 12:39 -8.74616 115.22413 2374 ft 218 kts 88°
2026-05-05 12:39 -8.74550 115.24025 2835 ft 242 kts 88°
2026-05-05 12:39 -8.74480 115.25771 3557 ft 253 kts 89°
2026-05-05 12:39 -8.74408 115.27574 4405 ft 260 kts 89°
2026-05-05 12:40 -8.74333 115.29425 5235 ft 266 kts 89°
2026-05-05 12:40 -8.74258 115.31311 6124 ft 270 kts 89°
2026-05-05 12:40 -8.74179 115.33253 6950 ft 275 kts 89°
2026-05-05 12:40 -8.74098 115.35191 7794 ft 278 kts 88°
2026-05-05 12:41 -8.74017 115.37152 8634 ft 280 kts 89°
2026-05-05 12:41 -8.73935 115.39131 9464 ft 284 kts 89°
2026-05-05 12:41 -8.73851 115.41134 10188 ft 290 kts 89°
2026-05-05 12:41 -8.73764 115.43254 10422 ft 313 kts 89°
2026-05-05 12:42 -8.73672 115.45537 10588 ft 337 kts 89°
2026-05-05 12:42 -8.73466 115.47968 10830 ft 356 kts 81°
2026-05-05 12:42 -8.72758 115.50390 11368 ft 364 kts 69°
2026-05-05 12:42 -8.71525 115.52655 11962 ft 372 kts 56°
2026-05-05 12:43 -8.69807 115.54638 12567 ft 379 kts 46°
2026-05-05 12:43 -8.67929 115.56521 13169 ft 383 kts 46°
2026-05-05 12:43 -8.66025 115.58429 13753 ft 388 kts 46°
2026-05-05 12:43 -8.64097 115.60361 14273 ft 392 kts 46°
2026-05-05 12:44 -8.62151 115.62309 14825 ft 395 kts 46°
2026-05-05 12:44 -8.60191 115.64268 15371 ft 398 kts 45°
2026-05-05 12:44 -8.58130 115.66158 15910 ft 403 kts 38°
2026-05-05 12:44 -8.55727 115.67621 16458 ft 406 kts 25°
2026-05-05 12:45 -8.53045 115.68550 17017 ft 410 kts 13°
2026-05-05 12:45 -8.50210 115.68883 17595 ft 412 kts
2026-05-05 12:45 -8.47356 115.68574 18155 ft 415 kts 345°
2026-05-05 12:45 -8.44725 115.67390 18629 ft 418 kts 326°
2026-05-05 12:46 -8.42612 115.65384 19083 ft 420 kts 306°
2026-05-05 12:46 -8.41266 115.62771 19526 ft 423 kts 287°
2026-05-05 12:46 -8.40861 115.59840 19950 ft 425 kts 267°
2026-05-05 12:46 -8.41454 115.56915 20350 ft 428 kts 248°
2026-05-05 12:47 -8.42786 115.54221 20731 ft 431 kts 243°
2026-05-05 12:47 -8.44000 115.51443 21134 ft 434 kts 249°
2026-05-05 12:47 -8.44863 115.48513 21503 ft 437 kts 258°
2026-05-05 12:47 -8.45277 115.45467 21859 ft 440 kts 267°
2026-05-05 12:48 -8.45380 115.42364 22231 ft 443 kts 268°
2026-05-05 12:48 -8.45467 115.39251 22600 ft 445 kts 268°
2026-05-05 12:48 -8.45552 115.36115 22930 ft 448 kts 268°
2026-05-05 12:48 -8.45642 115.32956 23238 ft 451 kts 268°
2026-05-05 12:49 -8.45739 115.29784 23555 ft 453 kts 268°
2026-05-05 12:49 -8.45839 115.26596 23837 ft 455 kts 268°
2026-05-05 12:49 -8.45947 115.23357 24123 ft 456 kts 268°
2026-05-05 12:49 -8.46055 115.20153 24402 ft 457 kts 268°
2026-05-05 12:50 -8.46164 115.16938 24683 ft 458 kts 268°
2026-05-05 12:50 -8.46271 115.13724 24977 ft 459 kts 268°
2026-05-05 12:50 -8.46374 115.10498 25261 ft 459 kts 268°
2026-05-05 12:50 -8.46447 115.07272 25535 ft 460 kts 271°
2026-05-05 12:51 -8.46071 115.04061 25806 ft 462 kts 282°
2026-05-05 12:51 -8.45088 115.00973 25925 ft 464 kts 294°
2026-05-05 12:51 -8.43490 114.98126 25955 ft 470 kts 306°
2026-05-05 12:51 -8.41330 114.95638 25953 ft 473 kts 317°
2026-05-05 12:52 -8.38710 114.93637 25954 ft 474 kts 328°
2026-05-05 12:52 -8.35886 114.91907 25953 ft 475 kts 328°
2026-05-05 12:52 -8.33055 114.90187 25953 ft 475 kts 329°
2026-05-05 12:52 -8.30211 114.88491 25953 ft 475 kts 329°
2026-05-05 12:53 -8.27353 114.86808 25952 ft 475 kts 329°
2026-05-05 12:53 -8.24503 114.85133 25946 ft 475 kts 329°
2026-05-05 12:53 -8.21636 114.83448 25949 ft 477 kts 329°
2026-05-05 12:53 -8.18773 114.81760 25950 ft 477 kts 329°
2026-05-05 12:54 -8.13049 114.78365 25948 ft 477 kts 329°
2026-05-05 12:54 -8.10192 114.76666 25939 ft 477 kts 329°
2026-05-05 12:54 -8.07332 114.74965 25936 ft 477 kts 329°
2026-05-05 12:55 -8.04476 114.73267 25937 ft 477 kts 329°
2026-05-05 12:55 -8.01618 114.71568 25936 ft 477 kts 329°
2026-05-05 12:55 -7.98762 114.69874 25930 ft 476 kts 329°
2026-05-05 12:55 -7.95918 114.68154 25925 ft 476 kts 326°
2026-05-05 12:56 -7.93330 114.66075 25918 ft 476 kts 315°
2026-05-05 12:56 -7.91149 114.63571 25921 ft 476 kts 306°
2026-05-05 12:56 -7.89437 114.60721 25918 ft 475 kts 295°
2026-05-05 12:56 -7.88253 114.57614 25919 ft 475 kts 285°
2026-05-05 12:57 -7.87405 114.54390 25915 ft 475 kts 284°
2026-05-05 12:57 -7.86561 114.51168 25911 ft 476 kts 284°
2026-05-05 12:57 -7.85701 114.47902 25909 ft 476 kts 284°
2026-05-05 12:57 -7.84860 114.44717 25908 ft 476 kts 284°
2026-05-05 12:58 -7.83998 114.41449 25911 ft 476 kts 284°
2026-05-05 12:58 -7.83145 114.38224 25918 ft 476 kts 284°
2026-05-05 12:58 -7.82293 114.34994 25921 ft 476 kts 284°
2026-05-05 12:58 -7.81442 114.31770 25920 ft 476 kts 285°
2026-05-05 12:59 -7.80586 114.28537 25920 ft 477 kts 284°
2026-05-05 12:59 -7.79732 114.25312 25919 ft 477 kts 284°
2026-05-05 12:59 -7.78877 114.22080 25920 ft 477 kts 284°
2026-05-05 13:00 -7.77172 114.15611 25921 ft 477 kts 284°
2026-05-05 13:00 -7.76319 114.12376 25927 ft 477 kts 284°
2026-05-05 13:01 -7.75017 114.02475 25907 ft 477 kts 272°
2026-05-05 13:01 -7.74873 113.99135 25908 ft 477 kts 272°
2026-05-05 13:01 -7.74725 113.95791 25909 ft 477 kts 272°
2026-05-05 13:01 -7.74576 113.92446 25908 ft 477 kts 272°
2026-05-05 13:02 -7.74428 113.89101 25912 ft 477 kts 272°
2026-05-05 13:02 -7.74279 113.85759 25914 ft 477 kts 272°
2026-05-05 13:02 -7.74129 113.82415 25914 ft 477 kts 272°
2026-05-05 13:02 -7.73979 113.79070 25917 ft 477 kts 272°
2026-05-05 13:03 -7.73831 113.75731 25914 ft 477 kts 272°
2026-05-05 13:03 -7.73682 113.72386 25913 ft 477 kts 272°
2026-05-05 13:03 -7.73534 113.69049 25915 ft 477 kts 272°
2026-05-05 13:03 -7.73387 113.65708 25915 ft 477 kts 272°
2026-05-05 13:04 -7.73235 113.62371 25919 ft 477 kts 272°
2026-05-05 13:04 -7.73079 113.59031 25917 ft 477 kts 272°
2026-05-05 13:04 -7.72912 113.55694 25916 ft 476 kts 275°
2026-05-05 13:04 -7.72402 113.52404 25908 ft 471 kts 283°
2026-05-05 13:05 -7.71619 113.49211 24976 ft 470 kts 284°
2026-05-05 13:05 -7.70804 113.45998 23808 ft 476 kts 285°
2026-05-05 13:05 -7.69968 113.42765 22887 ft 475 kts 285°
2026-05-05 13:05 -7.69135 113.39565 22068 ft 469 kts 285°
2026-05-05 13:06 -7.68310 113.36398 21301 ft 464 kts 285°
2026-05-05 13:06 -7.67501 113.33272 20623 ft 458 kts 284°
2026-05-05 13:06 -7.66708 113.30186 19920 ft 452 kts 284°
2026-05-05 13:06 -7.66180 113.28115 19471 ft 449 kts 284°
2026-05-05 13:07 -7.65410 113.25090 18852 ft 443 kts 284°
2026-05-05 13:07 -7.64714 113.22084 18231 ft 438 kts 282°
2026-05-05 13:07 -7.64110 113.19094 17533 ft 433 kts 281°
2026-05-05 13:07 -7.63561 113.16116 16812 ft 430 kts 279°
2026-05-05 13:08 -7.63033 113.13159 16132 ft 428 kts 279°
2026-05-05 13:08 -7.62500 113.10218 15491 ft 425 kts 280°
2026-05-05 13:08 -7.61952 113.07298 14941 ft 420 kts 280°
2026-05-05 13:08 -7.61402 113.04463 14820 ft 404 kts 280°
2026-05-05 13:09 -7.60865 113.01743 14699 ft 388 kts 281°
2026-05-05 13:09 -7.60343 112.99126 14581 ft 374 kts 281°
2026-05-05 13:09 -7.59836 112.96576 14134 ft 371 kts 280°
2026-05-05 13:09 -7.59334 112.94021 13622 ft 371 kts 280°
2026-05-05 13:10 -7.58837 112.91476 13102 ft 369 kts 280°
2026-05-05 13:10 -7.58345 112.88951 12623 ft 366 kts 280°
2026-05-05 13:10 -7.57857 112.86445 12155 ft 361 kts 280°
2026-05-05 13:10 -7.57388 112.84057 12025 ft 334 kts 281°
2026-05-05 13:11 -7.56952 112.81839 11902 ft 311 kts 281°
2026-05-05 13:11 -7.56547 112.79768 11659 ft 295 kts 280°
2026-05-05 13:11 -7.56157 112.77756 11187 ft 289 kts 281°
2026-05-05 13:11 -7.55774 112.75779 10681 ft 286 kts 281°
2026-05-05 13:12 -7.55395 112.73817 10151 ft 284 kts 281°
2026-05-05 13:12 -7.55019 112.71872 9606 ft 282 kts 281°
2026-05-05 13:12 -7.54642 112.69932 9176 ft 282 kts 281°
2026-05-05 13:12 -7.54264 112.68004 8845 ft 279 kts 281°
2026-05-05 13:13 -7.53888 112.66092 8514 ft 277 kts 281°
2026-05-05 13:13 -7.53515 112.64194 8173 ft 275 kts 281°
2026-05-05 13:13 -7.53143 112.62307 7826 ft 274 kts 281°
2026-05-05 13:13 -7.52774 112.60433 7480 ft 272 kts 281°
2026-05-05 13:14 -7.52404 112.58546 7134 ft 270 kts 281°
2026-05-05 13:14 -7.52042 112.56700 6788 ft 268 kts 281°
2026-05-05 13:14 -7.51682 112.54861 6443 ft 266 kts 281°
2026-05-05 13:14 -7.51322 112.53037 6090 ft 265 kts 281°
2026-05-05 13:15 -7.50746 112.51290 5719 ft 263 kts 301°
2026-05-05 13:15 -7.49554 112.49928 5369 ft 259 kts 326°
2026-05-05 13:15 -7.47934 112.49196 4996 ft 255 kts 351°
2026-05-05 13:15 -7.46186 112.49203 4626 ft 251 kts 15°
2026-05-05 13:16 -7.44556 112.49784 4243 ft 249 kts 23°
2026-05-05 13:16 -7.42943 112.50412 3851 ft 248 kts 22°
2026-05-05 13:16 -7.41349 112.51026 3637 ft 240 kts 22°
2026-05-05 13:16 -7.39846 112.51601 3632 ft 223 kts 22°
2026-05-05 13:17 -7.38446 112.52136 3632 ft 208 kts 23°
2026-05-05 13:17 -7.37108 112.52648 3635 ft 204 kts 23°
2026-05-05 13:17 -7.35791 112.53166 3432 ft 202 kts 30°
2026-05-05 13:17 -7.34743 112.54038 3168 ft 194 kts 59°
2026-05-05 13:18 -7.34279 112.55275 3051 ft 190 kts 86°
2026-05-05 13:18 -7.34394 112.56590 3042 ft 190 kts 100°
2026-05-05 13:18 -7.34613 112.57908 3040 ft 196 kts 99°
2026-05-05 13:18 -7.34832 112.59276 3032 ft 195 kts 99°
2026-05-05 13:19 -7.35048 112.60613 3019 ft 190 kts 99°
2026-05-05 13:19 -7.35257 112.61903 2872 ft 184 kts 100°
2026-05-05 13:19 -7.35459 112.63147 2672 ft 177 kts 100°
2026-05-05 13:19 -7.35657 112.64360 2444 ft 173 kts 99°
2026-05-05 13:20 -7.35848 112.65537 2229 ft 168 kts 99°
2026-05-05 13:20 -7.36034 112.66680 2015 ft 163 kts 100°
2026-05-05 13:20 -7.36215 112.67794 1809 ft 159 kts 99°
2026-05-05 13:20 -7.36391 112.68879 1610 ft 155 kts 99°
2026-05-05 13:21 -7.36563 112.69937 1407 ft 150 kts 99°
2026-05-05 13:21 -7.36728 112.70949 1230 ft 145 kts 100°
2026-05-05 13:21 -7.36889 112.71942 1039 ft 144 kts 100°
2026-05-05 13:21 -7.37053 112.72935 872 ft 144 kts 98°
2026-05-05 13:22 -7.37209 112.73920 680 ft 142 kts 99°
2026-05-05 13:22 -7.37373 112.74910 513 ft 143 kts 99°
2026-05-05 13:22 -7.37530 112.75901 334 ft 142 kts 98°
2026-05-05 13:22 -7.37689 112.76888 181 ft 143 kts 99°
2026-05-05 13:23 -7.37850 112.77866 18 ft 133 kts 99°
2026-05-05 13:23 -7.37956 112.78506 14 ft 49 kts 99°
2026-05-05 13:23 -7.37981 112.78654 17 ft 15 kts 99°
2026-05-05 13:23 -7.37999 112.78766 16 ft 17 kts 99°
2026-05-05 13:24 -7.37956 112.78857 16 ft 16 kts 21°
2026-05-05 13:24 -7.37836 112.78878 15 ft 19 kts
2026-05-05 13:24 -7.37695 112.78901 15 ft 21 kts
2026-05-05 13:24 -7.37606 112.78957 15 ft 11 kts 107°
2026-05-05 13:25 -7.37614 112.79042 15 ft 14 kts 98°
2026-05-05 13:25 -7.37585 112.79112 15 ft 10 kts 56°
2026-05-05 13:25 -7.37563 112.79170 16 ft 8 kts 16°
2026-05-05 13:25 -7.37542 112.79180 16 ft 0 kts 10°